{"data":{"norad_id":68288,"intl_designator":"2026-055AC","name":"STARLINK-37016","alt_names":[],"object_type":"PAYLOAD","status":"ACTIVE","operator":null,"country":"US","launch_date":"2026-03-19","launch_site_code":"AFETR","launch_vehicle":null,"mission":null,"orbit_class":"UNKNOWN","rcs_meters":null,"size_class":null,"mass_kg":null,"dimensions":null,"purposes":["comms"],"wikipedia_slug":null,"has_3d_model":false,"image_url":null,"decayed_at":null,"tle_current":{"epoch":"2026-09-20T01:49:59.918880Z","epoch_age_seconds":87756,"freshness":"FRESH","line1":"1 68288U 26055AC  26263.07638795  .00021057  00000+0  63245-3 0  9991","line2":"2 68288  53.1570 132.0210 0001260  75.5246 284.5896 15.34407215 29759","mean_motion":15.34407215,"eccentricity":0.000126,"inclination_deg":53.157,"raan_deg":132.021,"arg_perigee_deg":75.5246,"mean_anomaly_deg":284.5896,"bstar":0.00063245,"rev_number":2975,"period_min":93.847316795887,"perigee_km":461.81985262237,"apogee_km":463.54373895891,"semimajor_km":6840.8187957906,"source":"CELESTRAK","updated_at":"2026-09-20T09:00:43.851903Z"}}}